| time (UTC) | temp C | wind direction | speed KPH | gust KPH | rain 1hr cm | rain 24hr cm | rain mn cm | humidity % | barometer mb |
| 20260503013513 | 15 | 113 | 0.0 | 0.0 | 0.00 | 0.00 | 0.00 | 36 | 1014.5 |
| 20260503013030 | 15 | 113 | 0.0 | 0.0 | 0.00 | 0.00 | 0.00 | 36 | 1014.5 |
| 20260503012510 | 16 | 113 | 0.0 | 0.0 | 0.00 | 0.00 | 0.00 | 36 | 1014.6 |
| 20260503012014 | 16 | 113 | 0.0 | 3.2 | 0.00 | 0.00 | 0.00 | 36 | 1014.6 |
| 20260503011529 | 16 | 113 | 0.0 | 3.2 | 0.00 | 0.00 | 0.00 | 35 | 1014.5 |
| 20260503011011 | 16 | 168 | 0.0 | 3.2 | 0.00 | 0.00 | 0.00 | 32 | 1014.6 |
| 20260503010510 | 17 | 169 | 0.0 | 3.2 | 0.00 | 0.00 | 0.00 | 31 | 1014.6 |
| 20260503010024 | 17 | 166 | 0.0 | 1.6 | 0.00 | 0.00 | 0.00 | 32 | 1014.6 |
| 20260503005509 | 17 | 167 | 0.0 | 3.2 | 0.00 | 0.00 | 0.00 | 31 | 1014.6 |
| 20260503005008 | 17 | 247 | 0.0 | 9.7 | 0.00 | 0.00 | 0.00 | 31 | 1014.6 |
| 20260503004526 | 17 | 126 | 1.6 | 9.7 | 0.00 | 0.00 | 0.00 | 30 | 1014.6 |
| 20260503004009 | 18 | 179 | 1.6 | 8.0 | 0.00 | 0.00 | 0.00 | 30 | 1014.6 |
| 20260503003507 | 18 | 17 | 0.0 | 3.2 | 0.00 | 0.00 | 0.00 | 30 | 1014.6 |
| 20260503003025 | 18 | 257 | 0.0 | 9.7 | 0.00 | 0.00 | 0.00 | 29 | 1014.7 |
| 20260503002510 | 18 | 252 | 1.6 | 9.7 | 0.00 | 0.00 | 0.00 | 28 | 1014.7 |
| 20260503002007 | 18 | 267 | 0.0 | 6.4 | 0.00 | 0.00 | 0.00 | 29 | 1014.7 |
| 20260503001522 | 18 | 107 | 0.0 | 8.0 | 0.00 | 0.00 | 0.00 | 29 | 1014.8 |
| 20260503001009 | 18 | 154 | 1.6 | 9.7 | 0.00 | 0.00 | 0.00 | 29 | 1014.7 |
| 20260503000505 | 18 | 177 | 1.6 | 9.7 | 0.00 | 0.00 | 0.00 | 27 | 1014.9 |
| 20260503000024 | 18 | 338 | 0.0 | 11.3 | 0.00 | 0.00 | 0.00 | 30 | 1015.0 |
| 20260502235512 | 18 | 233 | 3.2 | 11.3 | 0.00 | 0.00 | 0.00 | 26 | 1015.2 |
| 20260502235009 | 18 | 314 | 3.2 | 9.7 | 0.00 | 0.00 | 0.00 | 32 | 1015.3 |
| 20260502234503 | 19 | 229 | 1.6 | 9.7 | 0.00 | 0.00 | 0.00 | 26 | 1015.3 |
| 20260502234009 | 19 | 105 | 0.0 | 9.7 | 0.00 | 0.00 | 0.00 | 28 | 1015.3 |
| 20260502233506 | 19 | 250 | 0.0 | 14.5 | 0.00 | 0.00 | 0.00 | 27 | 1015.3 |
| 20260502233003 | 19 | 329 | 0.0 | 14.5 | 0.00 | 0.00 | 0.00 | 30 | 1015.4 |
| 20260502232503 | 19 | 305 | 1.6 | 11.3 | 0.00 | 0.00 | 0.00 | 27 | 1015.5 |
| 20260502232003 | 19 | 306 | 1.6 | 9.7 | 0.00 | 0.00 | 0.00 | 27 | 1015.5 |
| 20260502231512 | 20 | 326 | 4.8 | 11.3 | 0.00 | 0.00 | 0.00 | 27 | 1015.6 |
| 20260502231003 | 19 | 182 | 0.0 | 11.3 | 0.00 | 0.00 | 0.00 | 29 | 1015.6 |
| 20260502230503 | 20 | 215 | 4.8 | 11.3 | 0.00 | 0.00 | 0.00 | 29 | 1015.7 |
| 20260502230004 | 20 | 317 | 3.2 | 9.7 | 0.00 | 0.00 | 0.00 | 27 | 1015.7 |
| 20260502225504 | 20 | 336 | 3.2 | 9.7 | 0.00 | 0.00 | 0.00 | 27 | 1015.7 |
| 20260502225005 | 19 | 306 | 3.2 | 8.0 | 0.00 | 0.00 | 0.00 | 28 | 1015.8 |
| 20260502224506 | 20 | 286 | 1.6 | 14.5 | 0.00 | 0.00 | 0.00 | 28 | 1015.9 |
| 20260502224001 | 20 | 288 | 3.2 | 14.5 | 0.00 | 0.00 | 0.00 | 30 | 1015.9 |
| 20260502223506 | 20 | 248 | 4.8 | 11.3 | 0.00 | 0.00 | 0.00 | 29 | 1016.0 |
| 20260502223006 | 20 | 242 | 3.2 | 9.7 | 0.00 | 0.00 | 0.00 | 28 | 1016.1 |
| 20260502222507 | 20 | 230 | 1.6 | 12.9 | 0.00 | 0.00 | 0.00 | 27 | 1016.1 |
| 20260502222003 | 20 | 306 | 3.2 | 12.9 | 0.00 | 0.00 | 0.00 | 30 | 1016.2 |
| 20260502221506 | 20 | 323 | 3.2 | 8.0 | 0.00 | 0.00 | 0.00 | 32 | 1016.3 |
| 20260502221010 | 19 | 258 | 1.6 | 11.3 | 0.00 | 0.00 | 0.00 | 26 | 1016.4 |
| 20260502220507 | 20 | 278 | 3.2 | 14.5 | 0.00 | 0.00 | 0.00 | 32 | 1016.5 |
| 20260502220003 | 19 | 197 | 4.8 | 14.5 | 0.00 | 0.00 | 0.00 | 30 | 1016.5 |
| 20260502215502 | 19 | 98 | 3.2 | 8.0 | 0.00 | 0.00 | 0.00 | 27 | 1016.6 |
| 20260502215003 | 20 | 321 | 1.6 | 12.9 | 0.00 | 0.00 | 0.00 | 33 | 1016.7 |
| 20260502214502 | 19 | 306 | 6.4 | 19.3 | 0.00 | 0.00 | 0.00 | 27 | 1016.7 |
| 20260502214004 | 19 | 288 | 3.2 | 19.3 | 0.00 | 0.00 | 0.00 | 30 | 1016.7 |
| 20260502213504 | 19 | 348 | 3.2 | 16.1 | 0.00 | 0.00 | 0.00 | 31 | 1016.8 |
| 20260502213011 | 18 | 258 | 0.0 | 11.3 | 0.00 | 0.00 | 0.00 | 29 | 1016.9 |
| 20260502212503 | 20 | 303 | 3.2 | 12.9 | 0.00 | 0.00 | 0.00 | 34 | 1017.0 |
| 20260502212002 | 20 | 304 | 6.4 | 12.9 | 0.00 | 0.00 | 0.00 | 31 | 1017.1 |
| 20260502211514 | 19 | 317 | 3.2 | 6.4 | 0.00 | 0.00 | 0.00 | 31 | 1017.0 |
| 20260502211003 | 18 | 253 | 1.6 | 9.7 | 0.00 | 0.00 | 0.00 | 34 | 1017.1 |
| 20260502210504 | 18 | 265 | 1.6 | 9.7 | 0.00 | 0.00 | 0.00 | 29 | 1017.3 |
| 20260502210018 | 18 | 322 | 4.8 | 9.7 | 0.00 | 0.00 | 0.00 | 30 | 1017.4 |
| 20260502205506 | 20 | 342 | 1.6 | 9.7 | 0.00 | 0.00 | 0.00 | 33 | 1017.5 |
| 20260502205007 | 19 | 306 | 1.6 | 11.3 | 0.00 | 0.00 | 0.00 | 29 | 1017.6 |
| 20260502204517 | 19 | 313 | 4.8 | 11.3 | 0.00 | 0.00 | 0.00 | 31 | 1017.8 |
| 20260502204006 | 19 | 248 | 1.6 | 12.9 | 0.00 | 0.00 | 0.00 | 33 | 1017.9 |
| 20260502203502 | 19 | 300 | 0.0 | 12.9 | 0.00 | 0.00 | 0.00 | 33 | 1018.0 |
| 20260502203008 | 18 | 121 | 1.6 | 12.9 | 0.00 | 0.00 | 0.00 | 33 | 1018.1 |
| 20260502202505 | 18 | 326 | 3.2 | 12.9 | 0.00 | 0.00 | 0.00 | 32 | 1018.2 |
| 20260502202008 | 18 | 308 | 3.2 | 9.7 | 0.00 | 0.00 | 0.00 | 36 | 1018.2 |
| 20260502201509 | 18 | 155 | 1.6 | 12.9 | 0.00 | 0.00 | 0.00 | 30 | 1018.3 |
| 20260502201009 | 19 | 325 | 4.8 | 12.9 | 0.00 | 0.00 | 0.00 | 35 | 1018.3 |
| 20260502200507 | 18 | 142 | 1.6 | 8.0 | 0.00 | 0.00 | 0.00 | 30 | 1018.3 |
| 20260502200003 | 18 | 136 | 0.0 | 6.4 | 0.00 | 0.00 | 0.00 | 34 | 1018.5 |
| 20260502195504 | 17 | 71 | 1.6 | 11.3 | 0.00 | 0.00 | 0.00 | 31 | 1018.6 |
| 20260502195004 | 17 | 244 | 4.8 | 14.5 | 0.00 | 0.00 | 0.00 | 33 | 1018.9 |
| 20260502194524 | 18 | 250 | 4.8 | 14.5 | 0.00 | 0.00 | 0.00 | 35 | 1019.1 |
| 20260502194003 | 18 | 268 | 1.6 | 14.5 | 0.00 | 0.00 | 0.00 | 36 | 1019.0 |
| 20260502193507 | 18 | 5 | 6.4 | 16.1 | 0.00 | 0.00 | 0.00 | 33 | 1019.1 |
| 20260502193020 | 18 | 217 | 4.8 | 16.1 | 0.00 | 0.00 | 0.00 | 36 | 1019.2 |
| 20260502192505 | 18 | 319 | 6.4 | 12.9 | 0.00 | 0.00 | 0.00 | 31 | 1019.3 |
| 20260502192009 | 18 | 329 | 3.2 | 12.9 | 0.00 | 0.00 | 0.00 | 38 | 1019.3 |
| 20260502191509 | 18 | 301 | 6.4 | 12.9 | 0.00 | 0.00 | 0.00 | 34 | 1019.4 |
| 20260502191008 | 17 | 260 | 1.6 | 12.9 | 0.00 | 0.00 | 0.00 | 37 | 1019.4 |
| 20260502190505 | 17 | 306 | 4.8 | 12.9 | 0.00 | 0.00 | 0.00 | 38 | 1019.4 |
| 20260502190013 | 17 | 295 | 4.8 | 12.9 | 0.00 | 0.00 | 0.00 | 38 | 1019.6 |
| 20260502185504 | 17 | 187 | 0.0 | 11.3 | 0.00 | 0.00 | 0.00 | 33 | 1019.6 |
| 20260502185010 | 17 | 132 | 3.2 | 14.5 | 0.00 | 0.00 | 0.00 | 34 | 1019.7 |
| 20260502184510 | 17 | 319 | 3.2 | 14.5 | 0.00 | 0.00 | 0.00 | 38 | 1019.9 |
| 20260502184005 | 17 | 304 | 3.2 | 14.5 | 0.00 | 0.00 | 0.00 | 37 | 1019.9 |
| 20260502183509 | 17 | 300 | 1.6 | 14.5 | 0.00 | 0.00 | 0.00 | 32 | 1020.0 |
| 20260502183010 | 17 | 292 | 4.8 | 12.9 | 0.00 | 0.00 | 0.00 | 39 | 1020.2 |
| 20260502182507 | 17 | 355 | 1.6 | 12.9 | 0.00 | 0.00 | 0.00 | 38 | 1020.1 |
| 20260502182009 | 17 | 194 | 4.8 | 12.9 | 0.00 | 0.00 | 0.00 | 37 | 1020.3 |
| 20260502181511 | 16 | 245 | 3.2 | 12.9 | 0.00 | 0.00 | 0.00 | 37 | 1020.2 |
| 20260502181004 | 16 | 237 | 4.8 | 12.9 | 0.00 | 0.00 | 0.00 | 35 | 1020.4 |
| 20260502180507 | 16 | 311 | 4.8 | 11.3 | 0.00 | 0.00 | 0.00 | 42 | 1020.4 |
| 20260502170514 | 16 | 319 | 3.2 | 9.7 | 0.00 | 0.00 | 0.00 | 45 | 1021.2 |
| 20260502164006 | 15 | 248 | 3.2 | 12.9 | 0.00 | 0.00 | 0.00 | 41 | 1021.3 |
| 20260502163506 | 14 | 257 | 1.6 | 12.9 | 0.00 | 0.00 | 0.00 | 37 | 1021.4 |
| 20260502163027 | 15 | 71 | 3.2 | 12.9 | 0.00 | 0.00 | 0.00 | 37 | 1021.4 |
| 20260502162506 | 14 | 355 | 1.6 | 11.3 | 0.00 | 0.00 | 0.00 | 39 | 1021.4 |
| 20260502162010 | 13 | 241 | 3.2 | 12.9 | 0.00 | 0.00 | 0.00 | 38 | 1021.5 |
| 20260502161516 | 14 | 314 | 4.8 | 12.9 | 0.00 | 0.00 | 0.00 | 39 | 1021.5 |
| 20260502161017 | 15 | 308 | 4.8 | 12.9 | 0.00 | 0.00 | 0.00 | 42 | 1021.5 |
| 20260502160506 | 14 | 315 | 3.2 | 12.9 | 0.00 | 0.00 | 0.00 | 44 | 1021.6 |
| 20260502152010 | 12 | 285 | 0.0 | 9.7 | 0.00 | 0.00 | 0.00 | 48 | 1021.7 |
| 20260502151520 | 12 | 300 | 1.6 | 9.7 | 0.00 | 0.00 | 0.00 | 45 | 1021.7 |
| 20260502151007 | 11 | 267 | 3.2 | 6.4 | 0.00 | 0.00 | 0.00 | 46 | 1021.7 |
| 20260502150506 | 11 | 250 | 3.2 | 6.4 | 0.00 | 0.00 | 0.00 | 46 | 1021.6 |
| 20260502130506 | 5 | 332 | 0.0 | 0.0 | 0.00 | 0.00 | 0.00 | 73 | 1021.9 |
| 20260502123515 | 2 | 333 | 0.0 | 0.0 | 0.00 | 0.00 | 0.00 | 83 | 1021.8 |
| 20260502123037 | 1 | 333 | 0.0 | 0.0 | 0.00 | 0.00 | 0.00 | 83 | 1021.8 |
| 20260502122510 | 1 | 333 | 0.0 | 0.0 | 0.00 | 0.00 | 0.00 | 84 | 1021.7 |
| 20260502122017 | 1 | 333 | 0.0 | 0.0 | 0.00 | 0.00 | 0.00 | 85 | 1021.7 |
| 20260502121520 | 1 | 333 | 0.0 | 0.0 | 0.00 | 0.00 | 0.00 | 86 | 1021.7 |
| 20260502121010 | 1 | 332 | 0.0 | 0.0 | 0.00 | 0.00 | 0.00 | 85 | 1021.7 |
| 20260502120509 | 0 | 360 | 0.0 | 0.0 | 0.00 | 0.00 | 0.00 | 85 | 1021.6 |
| 20260502115508 | 0 | 333 | 0.0 | 0.0 | 0.00 | 0.00 | 0.00 | 85 | 1021.6 |
| 20260502115015 | 0 | 360 | 0.0 | 0.0 | 0.00 | 0.00 | 0.00 | 84 | 1021.6 |
| 20260502114513 | 0 | 360 | 0.0 | 0.0 | 0.00 | 0.00 | 0.00 | 85 | 1021.5 |
| 20260502114007 | 0 | 360 | 0.0 | 0.0 | 0.00 | 0.00 | 0.00 | 85 | 1021.5 |
| 20260502113503 | 0 | 360 | 0.0 | 0.0 | 0.00 | 0.00 | 0.00 | 85 | 1021.5 |
| 20260502113007 | 0 | 360 | 0.0 | 0.0 | 0.00 | 0.00 | 0.00 | 84 | 1021.6 |
| 20260502112503 | 0 | 360 | 0.0 | 0.0 | 0.00 | 0.00 | 0.00 | 85 | 1021.6 |
| 20260502112003 | 0 | 360 | 0.0 | 0.0 | 0.00 | 0.00 | 0.00 | 84 | 1021.5 |
| 20260502111507 | 0 | 360 | 0.0 | 0.0 | 0.00 | 0.00 | 0.00 | 84 | 1021.5 |
| 20260502111004 | 0 | 360 | 0.0 | 0.0 | 0.00 | 0.00 | 0.00 | 84 | 1021.4 |
| 20260502110506 | 1 | 360 | 0.0 | 0.0 | 0.00 | 0.00 | 0.00 | 83 | 1021.4 |
| 20260502110017 | 1 | 360 | 0.0 | 0.0 | 0.00 | 0.00 | 0.00 | 84 | 1021.4 |
| 20260502105506 | 1 | 360 | 0.0 | 0.0 | 0.00 | 0.00 | 0.00 | 84 | 1021.3 |
| 20260502105003 | 1 | 360 | 0.0 | 0.0 | 0.00 | 0.00 | 0.00 | 84 | 1021.3 |
| 20260502104521 | 1 | 360 | 0.0 | 0.0 | 0.00 | 0.00 | 0.00 | 84 | 1021.3 |
| 20260502104006 | 1 | 360 | 0.0 | 0.0 | 0.00 | 0.00 | 0.00 | 84 | 1021.3 |
| 20260502103502 | 1 | 360 | 0.0 | 0.0 | 0.00 | 0.00 | 0.00 | 83 | 1021.3 |
| 20260502103022 | 1 | 360 | 0.0 | 0.0 | 0.00 | 0.00 | 0.00 | 82 | 1021.3 |
| 20260502102507 | 1 | 360 | 0.0 | 0.0 | 0.00 | 0.00 | 0.00 | 83 | 1021.3 |
| 20260502102010 | 1 | 360 | 0.0 | 0.0 | 0.00 | 0.00 | 0.00 | 83 | 1021.2 |
| 20260502101507 | 1 | 360 | 0.0 | 0.0 | 0.00 | 0.00 | 0.00 | 83 | 1021.2 |
| 20260502101005 | 1 | 360 | 0.0 | 0.0 | 0.00 | 0.00 | 0.00 | 83 | 1021.1 |
| 20260502100505 | 1 | 360 | 0.0 | 0.0 | 0.00 | 0.00 | 0.00 | 83 | 1021.2 |
| 20260502091523 | 1 | 333 | 0.0 | 0.0 | 0.00 | 0.00 | 0.00 | 79 | 1021.0 |
| 20260502091006 | 2 | 333 | 0.0 | 0.0 | 0.00 | 0.00 | 0.00 | 78 | 1020.9 |
| 20260502090505 | 2 | 333 | 0.0 | 0.0 | 0.00 | 0.00 | 0.00 | 78 | 1020.9 |
| 20260502071524 | 2 | 333 | 0.0 | 0.0 | 0.00 | 0.00 | 0.00 | 78 | 1021.1 |
| 20260502071011 | 2 | 333 | 0.0 | 0.0 | 0.00 | 0.00 | 0.00 | 78 | 1021.1 |
| 20260502070508 | 2 | 333 | 0.0 | 0.0 | 0.00 | 0.00 | 0.00 | 77 | 1021.1 |
| 20260502070022 | 3 | 333 | 0.0 | 0.0 | 0.00 | 0.00 | 0.00 | 76 | 1021.1 |
| 20260502065510 | 3 | 333 | 0.0 | 0.0 | 0.00 | 0.00 | 0.00 | 75 | 1021.0 |
| 20260502065012 | 3 | 333 | 0.0 | 0.0 | 0.00 | 0.00 | 0.00 | 75 | 1021.0 |
| 20260502064517 | 3 | 333 | 0.0 | 0.0 | 0.00 | 0.00 | 0.00 | 74 | 1021.0 |
| 20260502064005 | 3 | 333 | 0.0 | 0.0 | 0.00 | 0.00 | 0.00 | 74 | 1021.1 |
| 20260502063509 | 3 | 333 | 0.0 | 0.0 | 0.00 | 0.00 | 0.00 | 74 | 1021.2 |
| 20260502063014 | 3 | 333 | 0.0 | 0.0 | 0.00 | 0.00 | 0.00 | 74 | 1021.1 |
| 20260502062507 | 3 | 333 | 0.0 | 0.0 | 0.00 | 0.00 | 0.00 | 73 | 1021.1 |
| 20260502062008 | 3 | 333 | 0.0 | 0.0 | 0.00 | 0.00 | 0.00 | 72 | 1021.0 |
| 20260502061518 | 3 | 333 | 0.0 | 0.0 | 0.00 | 0.00 | 0.00 | 71 | 1021.0 |
| 20260502061008 | 3 | 333 | 0.0 | 0.0 | 0.00 | 0.00 | 0.00 | 71 | 1021.0 |
| 20260502060508 | 3 | 333 | 0.0 | 0.0 | 0.00 | 0.00 | 0.00 | 71 | 1020.9 |
| 20260502060016 | 3 | 333 | 0.0 | 0.0 | 0.00 | 0.00 | 0.00 | 71 | 1020.9 |
| 20260502055508 | 3 | 333 | 0.0 | 0.0 | 0.00 | 0.00 | 0.00 | 70 | 1020.9 |
| 20260502055008 | 3 | 333 | 0.0 | 0.0 | 0.00 | 0.00 | 0.00 | 70 | 1020.9 |
| 20260502054526 | 3 | 333 | 0.0 | 0.0 | 0.00 | 0.00 | 0.00 | 69 | 1020.8 |
| 20260502054007 | 4 | 333 | 0.0 | 0.0 | 0.00 | 0.00 | 0.00 | 69 | 1020.7 |
| 20260502053507 | 4 | 333 | 0.0 | 0.0 | 0.00 | 0.00 | 0.00 | 68 | 1020.7 |
| 20260502053023 | 4 | 333 | 0.0 | 0.0 | 0.00 | 0.00 | 0.00 | 69 | 1020.8 |
| 20260502052510 | 4 | 333 | 0.0 | 0.0 | 0.00 | 0.00 | 0.00 | 69 | 1020.8 |
| 20260502052006 | 4 | 333 | 0.0 | 0.0 | 0.00 | 0.00 | 0.00 | 68 | 1020.8 |
| 20260502051523 | 4 | 333 | 0.0 | 0.0 | 0.00 | 0.00 | 0.00 | 67 | 1020.7 |
| 20260502051006 | 4 | 333 | 0.0 | 0.0 | 0.00 | 0.00 | 0.00 | 66 | 1020.8 |
| 20260502050507 | 5 | 333 | 0.0 | 0.0 | 0.00 | 0.00 | 0.00 | 66 | 1020.8 |
| 20260502050030 | 5 | 333 | 0.0 | 0.0 | 0.00 | 0.00 | 0.00 | 65 | 1020.7 |
| 20260502045507 | 5 | 333 | 0.0 | 0.0 | 0.00 | 0.00 | 0.00 | 65 | 1020.7 |
| 20260502045008 | 5 | 333 | 0.0 | 0.0 | 0.00 | 0.00 | 0.00 | 63 | 1020.7 |
| 20260502044522 | 5 | 333 | 0.0 | 0.0 | 0.00 | 0.00 | 0.00 | 63 | 1020.7 |
| 20260502044006 | 5 | 333 | 0.0 | 0.0 | 0.00 | 0.00 | 0.00 | 59 | 1020.6 |
| 20260502043507 | 5 | 333 | 0.0 | 0.0 | 0.00 | 0.00 | 0.00 | 59 | 1020.6 |
| 20260502043026 | 5 | 333 | 0.0 | 0.0 | 0.00 | 0.00 | 0.00 | 58 | 1020.7 |
| 20260502042510 | 6 | 333 | 0.0 | 0.0 | 0.00 | 0.00 | 0.00 | 58 | 1020.7 |
| 20260502042012 | 5 | 333 | 0.0 | 0.0 | 0.00 | 0.00 | 0.00 | 59 | 1020.8 |
| 20260502041526 | 5 | 333 | 0.0 | 0.0 | 0.00 | 0.00 | 0.00 | 61 | 1020.7 |
| 20260502041011 | 6 | 333 | 0.0 | 0.0 | 0.00 | 0.00 | 0.00 | 61 | 1020.6 |
| 20260502040505 | 6 | 333 | 0.0 | 0.0 | 0.00 | 0.00 | 0.00 | 59 | 1020.6 |
| 20260502040018 | 6 | 333 | 0.0 | 0.0 | 0.00 | 0.00 | 0.00 | 58 | 1020.5 |
| 20260502035503 | 6 | 333 | 0.0 | 0.0 | 0.00 | 0.00 | 0.00 | 59 | 1020.5 |
| 20260502035006 | 6 | 333 | 0.0 | 0.0 | 0.00 | 0.00 | 0.00 | 60 | 1020.4 |
| 20260502034508 | 6 | 333 | 0.0 | 1.6 | 0.00 | 0.00 | 0.00 | 58 | 1020.5 |
| 20260502034005 | 6 | 333 | 0.0 | 1.6 | 0.00 | 0.00 | 0.00 | 56 | 1020.5 |
| 20260502033502 | 6 | 333 | 0.0 | 0.0 | 0.00 | 0.00 | 0.00 | 56 | 1020.5 |
| 20260502033006 | 6 | 333 | 0.0 | 0.0 | 0.00 | 0.00 | 0.00 | 57 | 1020.5 |
| 20260502032501 | 6 | 333 | 0.0 | 0.0 | 0.00 | 0.00 | 0.00 | 56 | 1020.5 |
| 20260502032003 | 6 | 333 | 0.0 | 0.0 | 0.00 | 0.00 | 0.00 | 57 | 1020.5 |
| 20260502031503 | 6 | 333 | 0.0 | 0.0 | 0.00 | 0.00 | 0.00 | 57 | 1020.5 |
| 20260502031003 | 6 | 333 | 0.0 | 0.0 | 0.00 | 0.00 | 0.00 | 55 | 1020.5 |
| 20260502030504 | 6 | 333 | 0.0 | 0.0 | 0.00 | 0.00 | 0.00 | 58 | 1020.4 |
| 20260502030017 | 7 | 333 | 0.0 | 0.0 | 0.00 | 0.00 | 0.00 | 54 | 1020.4 |
| 20260502025503 | 7 | 333 | 0.0 | 0.0 | 0.00 | 0.00 | 0.00 | 53 | 1020.3 |
| 20260502025002 | 7 | 333 | 0.0 | 0.0 | 0.00 | 0.00 | 0.00 | 54 | 1020.2 |
| 20260502024504 | 7 | 333 | 0.0 | 0.0 | 0.00 | 0.00 | 0.00 | 55 | 1020.1 |
| 20260502024003 | 7 | 333 | 0.0 | 0.0 | 0.00 | 0.00 | 0.00 | 53 | 1020.0 |
| 20260502023502 | 7 | 333 | 0.0 | 0.0 | 0.00 | 0.00 | 0.00 | 51 | 1020.0 |
| 20260502023004 | 8 | 333 | 0.0 | 0.0 | 0.00 | 0.00 | 0.00 | 48 | 1019.9 |
| 20260502022504 | 8 | 333 | 0.0 | 3.2 | 0.00 | 0.00 | 0.00 | 47 | 1019.9 |
| 20260502022002 | 8 | 333 | 0.0 | 3.2 | 0.00 | 0.00 | 0.00 | 48 | 1019.9 |
| 20260502021503 | 8 | 333 | 0.0 | 1.6 | 0.00 | 0.00 | 0.00 | 46 | 1019.8 |
| 20260502021002 | 8 | 333 | 0.0 | 3.2 | 0.00 | 0.00 | 0.00 | 46 | 1019.7 |
| 20260502020503 | 8 | 333 | 0.0 | 3.2 | 0.00 | 0.00 | 0.00 | 47 | 1019.7 |
| 20260502020003 | 8 | 333 | 0.0 | 3.2 | 0.00 | 0.00 | 0.00 | 45 | 1019.7 |
| 20260502015503 | 9 | 333 | 0.0 | 6.4 | 0.00 | 0.00 | 0.00 | 45 | 1019.6 |
| 20260502015003 | 9 | 333 | 0.0 | 6.4 | 0.00 | 0.00 | 0.00 | 44 | 1019.5 |
| 20260502014503 | 9 | 355 | 0.0 | 3.2 | 0.00 | 0.00 | 0.00 | 46 | 1019.3 |
| 20260502014002 | 9 | 355 | 0.0 | 3.2 | 0.00 | 0.00 | 0.00 | 46 | 1019.3 |